This demonstration page uses our WeatherBlox Daily Observations layout. Learn more.

Left ArrowRight Arrow

44.8408, -93.29828

Hourly Observations for August 10, 2019

Temp ( °F °C ) Dew Point ( °F °C ) Humidity (%) Winds ( mph kmh ) Pressure ( in mb ) Visibility ( mi km ) Precip ( " mm )
12:53 am 00:53 Cloudy 71 21.7 58 14.4 63 63 SSE 5 7 29.96 1015 8 13 0.00 0.00
1:53 am 01:53 Cloudy 72 22.2 56 13.3 57 57 Calm 29.96 1015 10 16 0.00 0.00
2:53 am 02:53 Mostly Clear 70 21.1 58 14.4 66 66 SSE 3 6 29.96 1015 10 16 0.00 0.00
3:53 am 03:53 Cloudy 71 21.7 57 13.9 61 61 SSW 5 7 29.96 1015 10 16 0.00 0.00
4:53 am 04:53 Cloudy with Rain 68 20 61 16.1 78 78 WSW 5 7 29.96 1015 6 10 0.02 0.51
5:53 am 05:53 Cloudy 67 19.4 60 15.6 79 79 S 7 11 29.97 1015 9 14 0.01 0.25
6:53 am 06:53 Cloudy with Light Rain 66 18.9 60 15.6 81 81 SE 5 7 29.98 1015 9 14 0.00 0.00
7:53 am 07:53 Cloudy 68 20 60 15.6 76 76 S 6 9 29.99 1016 8 13 0.00 0.00
8:53 am 08:53 Cloudy with Light Rain 67 19.4 60 15.6 79 79 SW 6 9 29.99 1016 9 14 0.00 0.00
9:53 am 09:53 Cloudy 68 20 60 15.6 76 76 S 6 9 30.00 1016 9 14 0.00 0.00
10:53 am 10:53 Cloudy 68 20 61 16.1 78 78 SE 8 13 29.99 1016 9 14 0.00 0.00
11:53 am 11:53 Cloudy 69 20.6 59 15 70 70 SE 8 13 29.98 1015 10 16 0.00 0.00
12:53 pm 12:53 Cloudy 72 22.2 58 14.4 61 61 ESE 13 20 29.96 1014 10 16 0.00 0.00
1:53 pm 13:53 Cloudy 72 22.2 58 14.4 61 61 SE 8 13 29.95 1014 10 16 0.00 0.00
2:53 pm 14:53 Cloudy 73 22.8 59 15 62 62 ESE 9 15 29.94 1014 10 16 0.00 0.00
3:18 pm 15:18 Cloudy with Nearby Thunderstorms 73 22.8 59 15 62 62 S 8 13 29.94 1014 8 13 0.00 0.00
3:22 pm 15:22 Cloudy with Strong Thunderstorms 71 21.7 62 16.7 73 73 S 10 17 29.94 1014 1 2 0.01 0.25
3:29 pm 15:29 Cloudy with Strong Thunderstorms 68 20 62 16.7 81 81 SE 9 15 29.94 1014 1 2 0.16 4.06
3:38 pm 15:38 Cloudy with Rain 66 18.9 63 17.2 90 90 SSE 3 6 29.94 1014 2 3 0.20 5.08
3:47 pm 15:47 Cloudy with Heavy Rain 66 19 63 17 88 88 Calm 29.94 1014 4 6 0.23 5.84
3:53 pm 15:53 Cloudy with Rain 66 18.9 63 17.2 90 90 E 7 11 29.95 1014 3 5 0.26 6.60
4:53 pm 16:53 Cloudy with Light Rain 68 20 63 17.2 84 84 ENE 10 17 29.93 1014 9 14 0.01 0.25
5:28 pm 17:28 Cloudy with Nearby Thunderstorms 67 19.4 62 16.7 84 84 ENE 10 17 29.93 1014 10 16 0.02 0.51
5:47 pm 17:47 Cloudy with Light Rain 66 19 63 17 88 88 E 8 13 29.92 1013 9 14 0.02 0.51
5:53 pm 17:53 Cloudy 67 19.4 64 17.8 91 91 E 9 15 29.93 1014 8 13 0.02 0.51
6:53 pm 18:53 Cloudy 67 19.4 64 17.8 91 91 E 9 15 29.92 1013 8 13 0.00 0.00
7:53 pm 19:53 Cloudy with Light Rain 67 19.4 63 17.2 87 87 E 10 17 29.92 1013 6 10 0.12 3.05
8:03 pm 20:03 Cloudy with Light Rain 67 19.4 64 17.8 91 91 E 9 15 29.90 1013 6 10 0.00 0.00
8:16 pm 20:16 Cloudy with Light Rain 67 19.4 64 17.8 91 91 E 9 15 29.90 1013 7 11 0.00 0.00
8:53 pm 20:53 Cloudy with Light Rain 67 19.4 64 17.8 91 91 E 10 17 29.91 1013 10 16 0.00 0.00
9:53 pm 21:53 Cloudy 66 18.9 63 17.2 90 90 E 8 13 29.92 1013 10 16 0.00 0.00
10:53 pm 22:53 Cloudy 66 18.9 63 17.2 90 90 E 8 13 29.93 1013 10 16 0.00 0.00
11:53 pm 23:53 Cloudy 66 18.9 62 16.7 87 87 ESE 8 13 29.93 1014 10 16 0.00 0.00

Powered by AerisWeather